Flag for Romania Weather past 2 weeks in Bucharest, Romania

Now
50 °F

Cool.


Feels Like: 50 °F
Forecast: 56 / 78 °F
Wind: No wind

Location: Bucharest / Imh

Current Time: Sep 20, 2014 at 5:28:20 AM

Latest Report: Sep 20, 2014 at 5:00 AM


Visibility: N/A

Pressure: 30.18 "Hg

Humidity: 88%

Dew point: 46 °F

Location of BucharestLocation

Historic Weather in Bucharest — Graph

°F

Bucharest temperature yesterday

Maximum temperature yesterday: 75 °F (at 3:00 PM)
Minimum temperature yesterday: 48 °F (at 6:30 AM)
Average temperature yesterday: 62 °F

Past Weeks' High & Low Weather Summary

 TemperatureHumidityPressure
High86 °F (Sep 8, 3:30 PM)100% (Sep 13, 6:00 AM)30.27 "Hg (Sep 13, 6:00 AM)
Low48 °F (Sep 19, 6:30 AM)18% (Sep 11, 5:00 PM)29.86 "Hg (Sep 6, 3:30 PM)
Average69 °F54%30.02 "Hg
* Reported Sep 5 4:00 AM — Sep 20 4:00 AM, Bucharest, Weather by CustomWeather, © 2014

Note: Actual official high and low records may vary slightly from our data, if they occured in-between our weather recording intervals... More about our weather records

Advertising

Bucharest weather history for previous 24 hours

 ConditionsComfort  
Time TempWeatherWind HumidityBarometerVisibility
4:00 AM
Sep 20
50 °FClear.No wind82%30.18 "Hg10 mi
3:00 AM52 °FClear.No wind82%30.18 "Hg10 mi
2:30 AM52 °FClear.No wind82%30.18 "Hg10 mi
2:00 AM54 °FClear.No wind77%30.18 "Hg10 mi
1:30 AM54 °FClear.No wind77%30.18 "Hg10 mi
1:00 AM54 °FCool.No wind77%30.18 "HgN/A
12:30 AM55 °FClear.No wind72%30.18 "Hg10 mi
12:00 AM55 °FCool.No wind72%30.21 "HgN/A
11:30 PM
Sep 19
57 °FClear.No wind67%30.21 "Hg10 mi
11:00 PM55 °FCool.1 mph77%30.21 "HgN/A
10:30 PM59 °FCool.1 mph63%30.21 "HgN/A
10:00 PM57 °FClear.No wind67%30.21 "Hg10 mi
9:30 PM59 °FClear.No wind63%30.21 "Hg10 mi
9:00 PM66 °FClear.No wind46%30.21 "Hg10 mi
8:30 PM66 °FClear.No wind46%30.21 "Hg10 mi
8:00 PM68 °FSunny.No wind43%30.21 "Hg10 mi
7:30 PM72 °FSunny.No wind31%30.21 "Hg10 mi
7:00 PM72 °FSunny.No wind31%30.21 "Hg10 mi
6:30 PM72 °FSunny.No wind27%30.18 "Hg10 mi
6:00 PM72 °FSunny.No wind27%30.18 "Hg10 mi
5:30 PM73 °FSunny.No wind25%30.21 "Hg10 mi
5:00 PM75 °FSunny.1 mph25%30.18 "Hg10 mi
4:30 PM75 °FMild.1 mph24%30.21 "HgN/A
4:00 PM75 °FSunny.1 mph24%30.21 "Hg10 mi
3:30 PM75 °FSunny.1 mph24%30.21 "Hg10 mi
3:00 PM75 °FSunny.2 mph22%30.21 "Hg10 mi
2:30 PM73 °FSunny.5 mph25%30.21 "Hg10 mi
2:00 PM73 °FSunny.1 mph25%30.24 "Hg10 mi
1:30 PM72 °FSunny.3 mph27%30.24 "Hg10 mi
1:00 PM72 °FSunny.2 mph27%30.24 "Hg10 mi
12:30 PM72 °FPassing clouds.3 mph25%30.27 "HgN/A
12:00 PM70 °FSunny.2 mph29%30.27 "Hg10 mi
11:30 AM70 °FSunny.2 mph33%30.27 "Hg10 mi
11:00 AM68 °FSunny.1 mph38%30.27 "Hg10 mi
10:30 AM66 °FPassing clouds.3 mph43%30.27 "HgN/A
10:00 AM64 °FPassing clouds.3 mph46%30.27 "HgN/A
9:30 AM63 °FPassing clouds.3 mph52%30.27 "HgN/A
9:00 AM57 °FSunny.1 mph67%30.27 "Hg10 mi
8:30 AM54 °FSunny.2 mph77%30.27 "Hg10 mi
8:00 AM50 °FSunny.2 mph82%30.27 "Hg10 mi
7:30 AM50 °FClear.No wind82%30.24 "Hg10 mi
7:00 AM48 °FClear.2 mph87%30.24 "Hg10 mi
6:30 AM48 °FClear.2 mph87%30.24 "Hg10 mi
5:30 AM50 °FClear.2 mph76%30.24 "Hg10 mi
5:00 AM50 °FClear.1 mph76%30.24 "Hg10 mi
Weather by CustomWeather, © 2014

See weather overviewHow to use our weather pages